[[{"header":{"parameterUnit":"m.s-1","parameterCategory":1,"la1":30.2991,"la2":30.254,"lo1":-89.0895,"lo2":-89.0444,"dy":0.0017,"dx":0.0017,"nx":28,"ny":28,"refTime":"2024-06-26T09:00:00:Z","depth":0,"parameterNumber":2,"parameterNumberName":"U-component_of_WINDS"},"data":[0,0,0,0,0,0,0,0,0,0,0,0,0,0,0,0,0,0,0,0,0,0,0,0,0,0,0,0,0,0,0,0,0,0,0,0,0,0,0,0,0,0,0,0,0,0,0,0,0,0,0,0,0,0,0,0,0,0,5.1965,5.1967,0,5.2164,5.2166,5.2169,5.2139,5.2135,5.2132,5.2129,5.2336,5.2344,5.2353,0,0,0,0,0,0,0,0,0,0,0,0,0,5.1562,5.1569,5.1965,5.1967,5.197,5.2164,5.2166,5.2169,5.2139,5.2135,5.2131,5.2127,5.2333,5.2343,5.2353,0,0,0,0,0,0,0,0,0,0,0,0,0,5.1746,5.1572,5.1964,5.1978,5.1981,5.2163,5.2167,5.217,5.214,5.2135,5.213,5.2125,5.2329,5.2342,5.2355,5.2536,0,0,5.2395,5.24,0,0,0,0,0,0,0,0,5.1736,5.1761,5.1974,5.1978,5.1982,5.2121,5.21,5.2293,5.2142,5.208,5.2129,5.2123,5.2269,5.2286,5.2335,5.2546,5.2555,5.2396,5.2404,5.2409,5.2413,0,0,0,0,0,0,0,5.1723,5.1753,5.2044,5.1977,5.1982,5.1975,5.1996,5.2136,5.22,5.2085,5.2083,5.2107,5.227,5.2322,5.234,5.2558,5.2395,5.2407,5.2415,5.242,5.2928,5.2933,0,0,0,0,0,0,5.1706,5.1742,5.2037,5.205,5.1844,5.1987,5.201,5.2082,5.2199,5.2212,5.2111,5.2105,5.2303,5.2324,5.2347,5.2567,5.2409,5.2421,5.2429,5.2922,5.2929,5.2935,0,0,0,0,0,0,5.1698,5.1733,5.2029,5.1896,5.1933,5.1999,5.208,5.2088,5.2141,5.2219,5.223,5.2153,5.23,5.2328,5.2489,5.2573,5.2427,5.2439,5.2915,5.2924,5.2932,5.3008,0,0,0,0,0,0,5.1686,5.173,5.1799,5.1897,5.194,5.2168,5.2085,5.2096,5.2163,5.2157,5.2261,5.2273,5.2298,5.247,5.2502,5.2589,5.2449,5.2908,5.2919,5.2929,5.2998,5.3018,5.3035,0,0,0,0,0,5.1672,5.1813,5.1802,5.1838,5.2027,5.2173,5.2197,5.2222,5.217,5.224,5.229,5.227,5.2559,5.2487,5.2523,5.2614,5.2903,5.2916,5.2929,5.299,5.3014,5.3034,0,0,0,0,0,0,5.1724,5.1826,5.1816,5.1992,5.2074,5.2167,5.2257,5.2247,5.2346,5.2336,5.2363,5.2387,5.2549,5.2598,5.2516,5.2796,5.2724,5.2745,5.2758,5.2782,5.28,5.2784,5.246,0,0,0,0,0,5.1755,5.1864,5.1948,5.2096,5.2137,5.219,5.2254,5.2266,5.2352,5.2387,5.2449,5.2534,5.2643,5.2715,5.2821,5.3005,5.3027,5.3086,5.3104,5.3119,5.3136,5.3237,5.3264,5.2977,5.2977,5.2977,0,0,5.1823,5.1892,5.1959,5.2108,5.2173,5.2285,5.2219,5.2341,5.2425,5.2406,5.2561,5.2609,5.2706,5.2879,5.2959,5.2925,5.322,5.3135,5.3146,5.3156,5.3253,5.328,5.3304,5.2986,5.2985,5.2983,0,0,5.2002,5.2066,5.2196,5.2262,5.236,5.2394,5.2425,5.2521,5.2552,5.2708,5.2695,5.2796,5.2985,5.3054,5.3114,5.332,5.3305,5.3354,5.345,5.3548,5.357,5.3591,5.3664,5.369,5.3371,5.3371,5.3372,0,5.2074,5.2242,5.2264,5.2388,5.2454,5.244,5.2572,5.2636,5.2764,5.281,5.277,5.3006,5.3071,5.326,5.331,5.3359,5.3396,5.3342,5.3565,5.3586,5.3605,5.3675,5.3703,5.3377,5.3376,5.3375,5.3375,0,5.2325,5.2442,5.2535,5.2658,5.2735,5.2862,5.2904,5.298,5.2985,5.3023,5.3183,5.3259,5.338,5.3426,5.3432,5.3616,5.3592,5.3559,5.3487,5.3637,5.3703,5.373,5.3384,5.3382,5.3381,5.3379,0,0,5.2543,5.2676,5.271,5.2765,5.2873,5.2964,5.3091,5.3208,5.3272,5.3361,5.3468,5.3628,5.3598,5.3666,5.368,5.3767,5.3925,5.3723,5.3725,5.3757,5.4132,5.4155,5.4186,5.3916,5.3921,5.3925,5.4123,0,5.2732,5.2955,5.2979,5.3179,5.3287,5.3276,5.3387,5.3465,5.3505,5.3603,5.3647,5.376,5.3711,5.3752,5.3837,5.3887,5.4,5.3874,5.4016,5.4021,5.3992,5.4221,5.4247,5.443,5.4149,5.4154,5.4157,0,5.2984,5.3079,5.3289,5.3381,5.3427,5.3526,5.3635,5.3729,5.3818,5.3841,5.3916,5.392,5.4051,5.3975,5.4157,5.407,5.413,5.4163,5.4171,5.4185,5.4098,5.4241,5.4489,5.4517,5.4198,5.4195,5.4192,0,5.3121,5.3302,5.3451,5.3499,5.361,5.3679,5.3729,5.3813,5.3882,5.3977,5.4022,5.4132,5.4193,5.4278,5.4312,5.4253,5.4492,5.4418,5.4515,5.4514,5.4566,5.4562,5.4827,5.4605,5.4605,5.4604,5.4604,0,5.3331,5.3459,5.3514,5.3605,5.375,5.3776,5.3919,5.3965,5.404,5.4141,5.4138,5.4233,5.4271,5.4373,5.44,5.4546,5.4574,5.4596,5.4602,5.4597,5.4594,5.4636,5.4624,5.4611,5.461,5.4608,5.4607,0,5.3508,5.355,5.3711,5.3803,5.3829,5.3931,5.401,5.4099,5.4137,5.4265,5.4297,5.4357,5.4476,5.4518,5.4663,5.4681,5.4851,5.4846,5.4821,5.4822,5.4916,5.4907,5.5217,5.5259,5.501,5.5013,5.5015,0,5.3639,5.3738,5.384,5.3907,5.3958,5.4067,5.4136,5.4167,5.4239,5.4348,5.4424,5.4542,5.4638,5.4829,5.4886,5.4997,5.4995,5.5096,5.5012,5.5003,5.4996,5.4989,5.4999,5.5112,5.5114,5.5116,5.5118,0,5.3866,5.3882,5.3982,5.409,5.4173,5.4259,5.4343,5.4398,5.4441,5.4523,5.4644,5.4719,5.4866,5.4983,5.5097,5.5149,5.5141,5.5144,5.5172,5.5168,5.5148,5.5159,5.4863,5.5137,5.5135,5.5134,5.5133,5.5132,5.4025,5.4112,5.4197,5.4308,5.4374,5.4452,5.454,5.4589,5.469,5.4812,5.4824,5.4954,5.5041,5.5192,5.5249,5.5352,5.5324,5.5365,5.5376,5.5385,5.5392,5.5132,5.5373,5.5373,5.5372,5.5372,5.5372,0,5.4252,5.4306,5.4408,5.4524,5.4612,5.4596,5.4688,5.4763,5.4877,5.4958,5.5052,5.5191,5.5305,5.5371,5.5485,5.5555,5.5554,5.5584,5.5579,5.5591,5.5411,5.5375,5.5583,5.5583,5.5583,5.5583,5.5582,5.5582,5.438,5.4526,5.4552,5.4731,5.4784,5.4911,5.4965,5.5037,5.5101,5.5256,5.535,5.5392,5.5468,5.5587,5.5691,5.5707,5.5749,5.5782,5.5795,5.5626,5.5604,5.5583,5.5549,5.5791,5.5791,5.5967,5.5969,5.597]},{"header":{"parameterUnit":"m.s-1","parameterCategory":1,"la1":30.2991,"la2":30.254,"lo1":-89.0895,"lo2":-89.0444,"dy":0.0017,"dx":0.0017,"nx":28,"ny":28,"refTime":"2024-06-26T09:00:00:Z","depth":0,"parameterNumber":3,"parameterNumberName":"V-component_of_WINDS"},"data":[0,0,0,0,0,0,0,0,0,0,0,0,0,0,0,0,0,0,0,0,0,0,0,0,0,0,0,0,0,0,0,0,0,0,0,0,0,0,0,0,0,0,0,0,0,0,0,0,0,0,0,0,0,0,0,0,0,0,-0.4285,-0.4285,0,-0.427,-0.427,-0.4269,-0.4278,-0.4278,-0.4279,-0.4279,-0.4261,-0.426,-0.4259,0,0,0,0,0,0,0,0,0,0,0,0,0,-0.4321,-0.432,-0.4285,-0.4285,-0.4285,-0.427,-0.427,-0.4269,-0.4278,-0.4278,-0.4279,-0.4279,-0.4261,-0.426,-0.4259,0,0,0,0,0,0,0,0,0,0,0,0,0,-0.4305,-0.432,-0.4285,-0.4287,-0.4287,-0.427,-0.427,-0.4269,-0.4277,-0.4278,-0.4279,-0.4279,-0.4261,-0.426,-0.4259,-0.4238,0,0,-0.4255,-0.4254,0,0,0,0,0,0,0,0,-0.4306,-0.4304,-0.4287,-0.4287,-0.4287,-0.4276,-0.4275,-0.4259,-0.4277,-0.4281,-0.4279,-0.428,-0.4265,-0.4264,-0.4259,-0.4237,-0.4236,-0.4255,-0.4254,-0.4253,-0.4253,0,0,0,0,0,0,0,-0.4307,-0.4305,-0.4279,-0.4287,-0.4287,-0.4288,-0.4287,-0.4272,-0.427,-0.4281,-0.4281,-0.428,-0.4265,-0.4261,-0.4259,-0.4236,-0.4255,-0.4253,-0.4253,-0.4252,-0.4196,-0.4195,0,0,0,0,0,0,-0.4308,-0.4305,-0.428,-0.4279,-0.4298,-0.4287,-0.4286,-0.4279,-0.427,-0.4269,-0.4279,-0.428,-0.4262,-0.426,-0.4258,-0.4233,-0.4253,-0.4252,-0.4251,-0.4196,-0.4195,-0.4195,0,0,0,0,0,0,-0.4309,-0.4306,-0.428,-0.4292,-0.4289,-0.4286,-0.4279,-0.4278,-0.4274,-0.4269,-0.4268,-0.4275,-0.4263,-0.426,-0.4243,-0.4232,-0.4251,-0.425,-0.4197,-0.4196,-0.4195,-0.4182,0,0,0,0,0,0,-0.431,-0.4306,-0.4298,-0.4292,-0.4288,-0.4266,-0.4278,-0.4278,-0.4272,-0.4273,-0.4264,-0.4263,-0.4263,-0.4245,-0.4242,-0.4231,-0.4249,-0.4198,-0.4197,-0.4195,-0.4183,-0.4181,-0.4178,0,0,0,0,0,-0.4311,-0.4295,-0.4298,-0.4295,-0.4279,-0.4265,-0.4263,-0.4263,-0.4271,-0.4263,-0.426,-0.4264,-0.4234,-0.4243,-0.4239,-0.4228,-0.4199,-0.4197,-0.4195,-0.4184,-0.4181,-0.4178,0,0,0,0,0,0,-0.4299,-0.4294,-0.4297,-0.4279,-0.4272,-0.4266,-0.4256,-0.426,-0.4251,-0.4252,-0.4253,-0.4251,-0.4233,-0.4229,-0.4239,-0.4207,-0.4218,-0.4215,-0.421,-0.4207,-0.4205,-0.4206,-0.4248,0,0,0,0,0,-0.4295,-0.4285,-0.428,-0.4264,-0.4261,-0.4259,-0.4253,-0.4254,-0.4247,-0.4244,-0.424,-0.4233,-0.4222,-0.4214,-0.4204,-0.4183,-0.4181,-0.4174,-0.4171,-0.4169,-0.4167,-0.4155,-0.4152,-0.4189,-0.4189,-0.4189,0,0,-0.4285,-0.4281,-0.4274,-0.4262,-0.4257,-0.4246,-0.4257,-0.4244,-0.4236,-0.4242,-0.4226,-0.4223,-0.4214,-0.4195,-0.4187,-0.4191,-0.4156,-0.4167,-0.4166,-0.4164,-0.4153,-0.415,-0.4146,-0.4188,-0.4189,-0.4189,0,0,-0.426,-0.4257,-0.4243,-0.4238,-0.4231,-0.423,-0.4227,-0.422,-0.4219,-0.4202,-0.4207,-0.4197,-0.4178,-0.4172,-0.4166,-0.4141,-0.4144,-0.4138,-0.4124,-0.4113,-0.411,-0.4107,-0.4097,-0.4094,-0.4135,-0.4135,-0.4135,0,-0.4249,-0.4233,-0.4235,-0.4222,-0.4217,-0.4223,-0.4209,-0.4204,-0.4193,-0.4189,-0.4195,-0.4172,-0.4167,-0.4146,-0.414,-0.4136,-0.4131,-0.4138,-0.411,-0.4108,-0.4105,-0.4096,-0.4092,-0.4135,-0.4135,-0.4135,-0.4135,0,-0.4218,-0.4207,-0.4196,-0.4187,-0.418,-0.4167,-0.4167,-0.4159,-0.4161,-0.416,-0.4143,-0.4138,-0.4126,-0.4122,-0.4123,-0.4101,-0.4105,-0.411,-0.412,-0.4101,-0.4092,-0.4088,-0.4133,-0.4134,-0.4134,-0.4134,0,0,-0.4185,-0.4178,-0.4174,-0.417,-0.4163,-0.4154,-0.4141,-0.413,-0.4124,-0.4117,-0.4105,-0.409,-0.4095,-0.4089,-0.409,-0.408,-0.406,-0.4087,-0.4087,-0.4082,-0.4035,-0.403,-0.4026,-0.4063,-0.4062,-0.4062,-0.4036,0,-0.416,-0.4137,-0.4139,-0.4118,-0.4107,-0.4114,-0.4102,-0.4096,-0.4095,-0.4085,-0.4083,-0.4072,-0.408,-0.4077,-0.4067,-0.4064,-0.405,-0.4066,-0.4051,-0.4051,-0.4052,-0.4022,-0.4016,-0.3992,-0.4032,-0.4032,-0.4031,0,-0.4127,-0.412,-0.4097,-0.4092,-0.4088,-0.4078,-0.4068,-0.406,-0.4053,-0.4053,-0.4046,-0.4049,-0.4035,-0.4046,-0.4027,-0.4038,-0.4032,-0.403,-0.4029,-0.4027,-0.4039,-0.4018,-0.3984,-0.398,-0.4026,-0.4027,-0.4027,0,-0.4104,-0.4089,-0.4073,-0.407,-0.4064,-0.4056,-0.4053,-0.4047,-0.4041,-0.4033,-0.4029,-0.4019,-0.4014,-0.4006,-0.4006,-0.4014,-0.3986,-0.3998,-0.3985,-0.3985,-0.3978,-0.3978,-0.3942,-0.3975,-0.3975,-0.3975,-0.3976,0,-0.4076,-0.4062,-0.4063,-0.4053,-0.4038,-0.404,-0.4025,-0.4022,-0.4017,-0.4007,-0.4012,-0.4002,-0.4003,-0.3993,-0.3993,-0.3977,-0.3975,-0.3973,-0.3973,-0.3972,-0.3972,-0.3968,-0.3969,-0.3975,-0.3975,-0.3975,-0.3975,0,-0.4047,-0.4048,-0.4031,-0.4027,-0.4026,-0.4014,-0.4011,-0.4001,-0.4001,-0.3987,-0.3985,-0.3983,-0.3971,-0.3971,-0.3958,-0.3958,-0.3938,-0.394,-0.394,-0.394,-0.3927,-0.3928,-0.3886,-0.3881,-0.3918,-0.3918,-0.3918,0,-0.4028,-0.4018,-0.4013,-0.4007,-0.4003,-0.3993,-0.3987,-0.3989,-0.3983,-0.3975,-0.3966,-0.3956,-0.3947,-0.3928,-0.3926,-0.3915,-0.3917,-0.3903,-0.3915,-0.3915,-0.3916,-0.3916,-0.3915,-0.39,-0.39,-0.3899,-0.3899,0,-0.3995,-0.3996,-0.3987,-0.3978,-0.3971,-0.3965,-0.3958,-0.3953,-0.3954,-0.3947,-0.3935,-0.3929,-0.3916,-0.3904,-0.3895,-0.3891,-0.3895,-0.3896,-0.3892,-0.389,-0.3891,-0.389,-0.3933,-0.3896,-0.3896,-0.3897,-0.3897,-0.3897,-0.397,-0.3961,-0.3956,-0.3946,-0.3942,-0.3936,-0.3927,-0.3926,-0.3917,-0.3906,-0.3908,-0.3895,-0.389,-0.3877,-0.3873,-0.3862,-0.3867,-0.3862,-0.3861,-0.3859,-0.3857,-0.3893,-0.3861,-0.3861,-0.3861,-0.3861,-0.3861,0,-0.3936,-0.3933,-0.3924,-0.3916,-0.3908,-0.3914,-0.3907,-0.39,-0.3889,-0.3884,-0.3875,-0.3862,-0.3852,-0.3849,-0.3839,-0.3831,-0.3833,-0.3828,-0.3828,-0.3827,-0.3854,-0.3858,-0.3827,-0.3827,-0.3827,-0.3827,-0.3827,-0.3827,-0.3917,-0.3902,-0.3902,-0.3885,-0.3883,-0.3871,-0.3866,-0.3861,-0.3857,-0.3842,-0.3834,-0.3832,-0.3827,-0.3817,-0.3808,-0.3807,-0.3803,-0.3797,-0.3797,-0.3822,-0.3825,-0.3829,-0.3832,-0.3797,-0.3797,-0.3771,-0.3771,-0.3771]}]]